#timestamp,LO_Frequency,Hit,StdDev 
1516118415.4,286047002.1,N
1516118435.3,286047002.7,Y
1516118455.1,286047002.7,P
1516118475.9,286047000.0,N
1516118495.7,286047001.1,N
1516118515.5,286047000.3,N
1516118535.4,286046998.4,N
1516118555.2,286046998.9,N
1516118575.0,286047001.1,N
1516118575.9,286047001.1,N
1516118595.8,286046999.4,N
1516118615.6,286046999.3,N
1516118635.5,286046999.3,N
1516118655.3,286046998.9,N
1516118675.1,286046998.5,N
1516118695.9,286047000.3,N
1516118715.7,286046998.4,N
1516118735.6,286047000.7,N
1516118755.4,286047000.3,N
1516118775.2,286047001.2,N
1516118795.1,286046999.3,N
1516118796.0,286046999.3,N
1516118815.8,286046997.4,N
1516118835.6,286046997.1,N
1516118855.5,286046998.3,N
1516118875.3,286046998.9,N
1516118895.2,286046999.3,N
1516118915.9,286047000.0,N
1516118935.7,286046998.1,N
1516118955.6,286047001.1,N
1516118975.4,286046998.7,N
1516118995.2,286046999.1,N
1516119015.1,286047000.8,N
1516119016.0,286047000.8,N
1516119035.8,286047000.9,N
1516119055.7,286047000.4,N
1516119075.5,286046998.2,N
1516119095.3,286046999.3,N
1516119115.2,286046996.7,N
1516119135.0,286046995.0,Y
1516119135.9,286046995.0,P
1516119155.8,286046997.2,N
1516119175.6,286046997.8,N
1516119195.4,286046996.5,N
1516119215.3,286046998.5,N
1516119235.1,286046999.2,N
1516119255.8,286046999.0,N
1516119275.7,286047000.9,N
1516119295.5,286047000.3,N
1516119315.4,286046999.9,N
1516119335.2,286047001.1,N
1516119355.0,286047000.2,N
1516119355.9,286047000.2,N
1516119375.8,286046999.9,N
1516119395.6,286047002.4,N
1516119415.4,286046999.9,N
1516119435.3,286047000.7,N
1516119455.1,286047000.9,N
1516119475.9,286046998.3,N
1516119495.7,286046998.6,N
1516119515.5,286047000.0,N
1516119535.4,286047002.8,N
1516119555.2,286047000.7,N
1516119575.0,286046999.9,N
1516119575.9,286046999.9,N
1516119595.8,286047000.0,N
1516119615.6,286047000.6,N
1516119635.5,286047000.6,N
1516119655.3,286047000.3,N
1516119675.1,286047000.3,N
1516119695.9,286047000.2,N
1516119715.7,286047002.8,N
1516119735.5,286047002.3,N
1516119755.4,286047000.2,N
1516119775.2,286047002.8,N
1516119795.1,286047000.1,N
1516119796.0,286047000.1,N
1516119815.8,286047002.4,N
1516119835.6,286047002.7,N
1516119855.5,286047000.3,N
1516119875.3,286046998.1,N
1516119895.2,286046999.9,N
1516119915.9,286047000.8,N
1516119935.7,286046998.1,N
1516119955.6,286046998.5,N
1516119975.4,286047000.9,N
1516119995.2,286047000.9,N
1516120015.1,286047000.1,N
1516120016.0,286047000.1,N
1516120035.8,286047000.4,N
1516120055.7,286047001.2,N
1516120075.5,286046998.3,N
1516120095.3,286047000.9,N
1516120115.2,286047000.6,N
1516120135.0,286046998.7,N
1516120135.9,286046998.7,N
1516120155.8,286047000.7,N
1516120175.6,286047000.2,N
1516120195.4,286047000.1,N
1516120215.3,286047002.4,N
1516120235.1,286047001.5,N
1516120255.9,286047002.1,N
1516120275.7,286047001.9,N
1516120295.5,286047001.8,N
1516120315.4,286047001.3,N
1516120335.2,286047003.9,Y
1516120355.1,286047001.6,P
1516120356.0,286047001.6,N
1516120375.8,286047001.6,N
1516120395.6,286047001.6,Y
1516120415.5,286046999.9,P
1516120435.3,286046999.7,N
1516120455.1,286047001.4,N
1516120475.9,286047003.9,Y
1516120495.7,286047001.9,P
1516120515.6,286046999.9,N
1516120535.4,286047001.5,N
1516120555.2,286047001.8,N
1516120575.1,286047002.5,Y
1516120576.0,286047002.5,P
1516120595.8,286047000.9,N
1516120615.7,286047000.9,N
1516120635.5,286046998.6,N
1516120655.3,286046998.3,N
1516120675.2,286046998.2,N
1516120695.0,286047002.2,N
1516120695.9,286047002.2,N
1516120715.8,286046999.9,N
1516120735.6,286047001.2,N
1516120755.4,286046999.6,N
1516120775.3,286046997.1,N
1516120795.1,286046999.6,N
1516120815.9,286046997.0,N
1516120835.7,286046996.7,N
1516120855.5,286046996.7,N
1516120875.4,286046998.9,N
1516120895.2,286046996.5,N
1516120915.0,286046996.9,N
1516120915.9,286046996.9,N
1516120935.8,286046999.5,N
1516120955.6,286046999.1,N
1516120975.5,286046998.9,N
1516120995.3,286046998.5,N
1516121015.1,286046998.8,N
1516121035.9,286046999.1,N
1516121055.7,286046999.2,N
1516121075.5,286046998.4,N
1516121095.4,286046998.4,N
1516121115.2,286046998.3,N
1516121135.1,286046998.9,N
1516121136.0,286046998.9,N
1516121155.8,286046999.0,N
1516121175.6,286046999.5,N
1516121195.5,286046996.9,N
1516121215.3,286046997.2,N
1516121235.2,286046999.6,N
1516121255.9,286046999.4,N
1516121275.7,286046996.9,N
1516121295.6,286046999.0,N
1516121315.4,286046998.9,N
1516121335.2,286046998.7,N
1516121355.1,286046998.7,N
1516121356.0,286046998.7,N
1516121375.8,286046998.5,N
1516121395.7,286047002.8,N
1516121415.5,286047001.6,N
1516121435.3,286047003.3,N
1516121455.2,286047007.6,Y
1516121475.0,286047005.7,P
1516121475.9,286047005.7,N
1516121495.8,286047005.8,N
1516121515.6,286047003.0,N
1516121535.4,286047003.9,N
1516121555.3,286047001.6,N
1516121575.1,286047003.6,N
1516121595.8,286047007.4,Y
1516121615.7,286047001.7,P
1516121635.5,286047001.6,N
1516121655.4,286047002.7,P
1516121675.2,286046999.7,N
1516121695.0,286047000.9,N
1516121695.9,286047000.9,N
1516121715.8,286046998.3,N
1516121735.6,286047000.5,N
1516121755.4,286046998.2,N
1516121775.3,286046998.7,N
1516121795.1,286046998.1,N
1516121815.9,286046999.2,N
1516121835.7,286046997.8,N
1516121855.5,286046998.0,N
1516121875.4,286046996.7,N
1516121895.2,286046999.6,N
1516121915.0,286046997.7,N
1516121915.9,286046997.7,N
1516121935.8,286046999.3,N
1516121955.6,286046998.0,N
1516121975.5,286046996.9,N
1516121995.3,286046996.3,N
